| time (UTC) | temp F | wind direction | speed MPH | gust MPH | rain 1hr in | rain 24hr in | rain mn in | humidity % | barometer mb |
| 20260904174545 | 60 | 0 | 0.0 | 2.0 | 0.00 | 0.05 | 0.02 | 87 | 1013.6 |
| 20260904173051 | 57 | 0 | 0.0 | 2.0 | 0.00 | 0.05 | 0.02 | 91 | 1013.6 |
| 20260904171547 | 57 | 0 | 0.0 | 2.0 | 0.01 | 0.05 | 0.02 | 90 | 1013.5 |
| 20260904170048 | 58 | 0 | 0.0 | 1.0 | 0.01 | 0.05 | 0.02 | 90 | 1013.6 |
| 20260904164546 | 59 | 0 | 0.0 | 2.0 | 0.01 | 0.05 | 0.02 | 89 | 1013.4 |
| 20260904163049 | 59 | 0 | 0.0 | 2.0 | 0.01 | 0.05 | 0.02 | 89 | 1013.6 |
| 20260904161558 | 58 | 0 | 0.0 | 1.0 | 0.00 | 0.04 | 0.01 | 95 | 1013.3 |
| 20260904160055 | 56 | 0 | 0.0 | 0.0 | 0.00 | 0.04 | 0.01 | 95 | 1013.3 |
| 20260904154545 | 56 | 0 | 0.0 | 1.0 | 0.00 | 0.04 | 0.01 | 96 | 1013.3 |
| 20260904153049 | 56 | 0 | 0.0 | 0.0 | 0.00 | 0.04 | 0.01 | 97 | 1013.1 |
| 20260904151550 | 54 | 0 | 0.0 | 0.0 | 0.00 | 0.04 | 0.01 | 96 | 1012.9 |
| 20260904150043 | 54 | 0 | 0.0 | 0.0 | 0.00 | 0.04 | 0.01 | 96 | 1012.9 |
| 20260904144600 | 54 | 0 | 0.0 | 0.0 | 0.00 | 0.05 | 0.01 | 96 | 1012.7 |
| 20260904143057 | 53 | 0 | 0.0 | 0.0 | 0.00 | 0.05 | 0.01 | 96 | 1012.5 |
| 20260904141546 | 53 | 0 | 0.0 | 0.0 | 0.00 | 0.05 | 0.01 | 96 | 1012.5 |
| 20260904140046 | 53 | 0 | 0.0 | 0.0 | 0.00 | 0.05 | 0.01 | 96 | 1012.3 |
| 20260904134544 | 53 | 0 | 0.0 | 0.0 | 0.00 | 0.07 | 0.01 | 96 | 1012.2 |
| 20260904133049 | 52 | 0 | 0.0 | 0.0 | 0.00 | 0.07 | 0.01 | 96 | 1011.9 |
| 20260904131547 | 52 | 0 | 0.0 | 0.0 | 0.00 | 0.07 | 0.01 | 95 | 1012.0 |
| 20260904130046 | 52 | 0 | 0.0 | 0.0 | 0.00 | 0.07 | 0.01 | 95 | 1011.9 |
| 20260904124544 | 52 | 0 | 0.0 | 0.0 | 0.00 | 0.12 | 0.01 | 95 | 1011.8 |
| 20260904123045 | 52 | 0 | 0.0 | 0.0 | 0.00 | 0.12 | 0.01 | 95 | 1011.7 |
| 20260904121541 | 52 | 0 | 0.0 | 0.0 | 0.00 | 0.12 | 0.01 | 95 | 1011.6 |
| 20260904120049 | 52 | 0 | 0.0 | 0.0 | 0.00 | 0.12 | 0.01 | 95 | 1011.5 |
| 20260904114547 | 53 | 0 | 0.0 | 0.0 | 0.00 | 0.12 | 0.01 | 95 | 1011.4 |
| 20260904113046 | 53 | 0 | 0.0 | 0.0 | 0.00 | 0.12 | 0.01 | 95 | 1011.4 |
| 20260904111543 | 53 | 0 | 0.0 | 0.0 | 0.00 | 0.12 | 0.01 | 95 | 1011.4 |
| 20260904110045 | 53 | 0 | 0.0 | 0.0 | 0.00 | 0.12 | 0.01 | 95 | 1011.2 |
| 20260904104546 | 53 | 0 | 0.0 | 0.0 | 0.00 | 0.12 | 0.01 | 95 | 1011.2 |
| 20260904103045 | 53 | 0 | 0.0 | 0.0 | 0.00 | 0.12 | 0.01 | 95 | 1011.2 |
| 20260904101543 | 53 | 0 | 0.0 | 0.0 | 0.00 | 0.12 | 0.01 | 95 | 1011.1 |
| 20260904100046 | 53 | 0 | 0.0 | 0.0 | 0.00 | 0.12 | 0.01 | 95 | 1010.9 |
| 20260904094547 | 53 | 0 | 0.0 | 0.0 | 0.00 | 0.13 | 0.01 | 94 | 1010.8 |
| 20260904093043 | 53 | 0 | 0.0 | 0.0 | 0.00 | 0.13 | 0.01 | 94 | 1010.9 |
| 20260904091553 | 53 | 0 | 0.0 | 0.0 | 0.00 | 0.13 | 0.01 | 94 | 1010.9 |
| 20260904090046 | 54 | 0 | 0.0 | 1.0 | 0.00 | 0.13 | 0.01 | 94 | 1010.8 |
| 20260904084546 | 54 | 0 | 0.0 | 0.0 | 0.00 | 0.13 | 0.01 | 94 | 1010.9 |
| 20260904083043 | 54 | 0 | 0.0 | 0.0 | 0.00 | 0.13 | 0.01 | 93 | 1010.6 |
| 20260904081548 | 54 | 0 | 0.0 | 0.0 | 0.01 | 0.13 | 0.01 | 93 | 1010.6 |
| 20260904080047 | 54 | 0 | 0.0 | 0.0 | 0.01 | 0.13 | 0.01 | 92 | 1010.7 |
| 20260904074559 | 55 | 0 | 0.0 | 0.0 | 0.02 | 0.13 | 0.01 | 92 | 1010.9 |
| 20260904073043 | 55 | 0 | 0.0 | 0.0 | 0.02 | 0.13 | 0.01 | 92 | 1011.0 |
| 20260904071611 | 55 | 0 | 0.0 | 0.0 | 0.01 | 0.12 | 0.00 | 92 | 1011.0 |
| 20260904070058 | 55 | 0 | 0.0 | 1.0 | 0.01 | 0.12 | 0.00 | 92 | 1010.9 |
| 20260904064602 | 55 | 0 | 0.0 | 2.0 | 0.00 | 0.11 | 0.11 | 91 | 1010.8 |
| 20260904063053 | 55 | 0 | 0.0 | 3.0 | 0.00 | 0.11 | 0.11 | 92 | 1010.9 |
| 20260904061547 | 55 | 0 | 0.0 | 0.0 | 0.00 | 0.11 | 0.11 | 91 | 1010.7 |
| 20260904060048 | 56 | 0 | 0.0 | 1.0 | 0.00 | 0.11 | 0.11 | 92 | 1010.7 |
| 20260904054544 | 56 | 0 | 0.0 | 0.0 | 0.00 | 0.11 | 0.11 | 92 | 1010.7 |
| 20260904053100 | 56 | 0 | 0.0 | 0.0 | 0.00 | 0.11 | 0.11 | 92 | 1010.7 |
| 20260904051548 | 56 | 0 | 0.0 | 1.0 | 0.00 | 0.11 | 0.11 | 92 | 1010.7 |
| 20260904050050 | 56 | 0 | 0.0 | 2.0 | 0.00 | 0.11 | 0.11 | 92 | 1010.7 |
| 20260904044545 | 56 | 0 | 0.0 | 1.0 | 0.00 | 0.11 | 0.11 | 92 | 1010.6 |
| 20260904043046 | 56 | 0 | 0.0 | 0.0 | 0.00 | 0.11 | 0.11 | 91 | 1010.7 |
| 20260904041548 | 56 | 0 | 0.0 | 0.0 | 0.00 | 0.11 | 0.11 | 91 | 1010.6 |
| 20260904040049 | 56 | 0 | 0.0 | 0.0 | 0.00 | 0.11 | 0.11 | 90 | 1010.6 |
| 20260904034546 | 57 | 0 | 0.0 | 0.0 | 0.00 | 0.11 | 0.11 | 90 | 1010.5 |
| 20260904033056 | 57 | 0 | 0.0 | 0.0 | 0.00 | 0.11 | 0.11 | 89 | 1010.3 |
| 20260904031601 | 57 | 0 | 0.0 | 0.0 | 0.00 | 0.11 | 0.11 | 88 | 1010.1 |
| 20260904030046 | 58 | 0 | 0.0 | 0.0 | 0.01 | 0.11 | 0.11 | 88 | 1009.9 |
| 20260904024542 | 58 | 0 | 0.0 | 0.0 | 0.02 | 0.11 | 0.11 | 87 | 1010.1 |
| 20260904023047 | 59 | 0 | 0.0 | 1.0 | 0.02 | 0.11 | 0.11 | 87 | 1010.0 |
| 20260904021550 | 59 | 101 | 0.0 | 2.0 | 0.01 | 0.10 | 0.10 | 86 | 1010.0 |
| 20260904020046 | 60 | 136 | 0.0 | 3.0 | 0.01 | 0.10 | 0.10 | 84 | 1010.0 |
| 20260904014546 | 61 | 128 | 0.0 | 3.0 | 0.00 | 0.10 | 0.09 | 80 | 1009.9 |
| 20260904013041 | 63 | 131 | 0.0 | 3.0 | 0.00 | 0.10 | 0.09 | 74 | 1010.1 |
| 20260904011546 | 63 | 0 | 0.0 | 2.0 | 0.00 | 0.10 | 0.09 | 69 | 1010.0 |
| 20260904010045 | 64 | 0 | 0.0 | 7.0 | 0.00 | 0.10 | 0.09 | 66 | 1009.9 |
| 20260904004546 | 65 | 246 | 1.0 | 6.0 | 0.00 | 0.14 | 0.09 | 65 | 1009.8 |
| 20260904003042 | 67 | 277 | 0.0 | 6.0 | 0.00 | 0.14 | 0.09 | 66 | 1009.5 |
| 20260904001547 | 66 | 248 | 2.0 | 5.0 | 0.00 | 0.14 | 0.09 | 62 | 1009.6 |
| 20260904000045 | 67 | 222 | 1.0 | 5.0 | 0.00 | 0.14 | 0.09 | 57 | 1009.6 |
| 20260903234545 | 70 | 190 | 1.0 | 5.0 | 0.00 | 0.15 | 0.09 | 55 | 1009.4 |
| 20260903233046 | 68 | 244 | 0.0 | 3.0 | 0.00 | 0.15 | 0.09 | 60 | 1009.5 |
| 20260903231550 | 68 | 0 | 0.0 | 7.0 | 0.00 | 0.15 | 0.09 | 58 | 1009.4 |
| 20260903230049 | 68 | 0 | 1.0 | 3.0 | 0.00 | 0.15 | 0.09 | 60 | 1009.5 |
| 20260903224546 | 65 | 0 | 0.0 | 2.0 | 0.00 | 0.21 | 0.09 | 64 | 1009.7 |
| 20260903223048 | 65 | 0 | 0.0 | 3.0 | 0.00 | 0.21 | 0.09 | 63 | 1009.8 |
| 20260903221550 | 65 | 0 | 0.0 | 5.0 | 0.00 | 0.21 | 0.09 | 65 | 1009.8 |
| 20260903220045 | 64 | 0 | 1.0 | 3.0 | 0.00 | 0.21 | 0.09 | 66 | 1009.8 |
| 20260903214545 | 63 | 0 | 0.0 | 3.0 | 0.00 | 0.27 | 0.09 | 71 | 1009.8 |
| 20260903213049 | 63 | 0 | 0.0 | 3.0 | 0.00 | 0.27 | 0.09 | 73 | 1009.8 |
| 20260903211551 | 63 | 0 | 0.0 | 2.0 | 0.00 | 0.27 | 0.09 | 73 | 1009.9 |
| 20260903210045 | 63 | 250 | 0.0 | 5.0 | 0.00 | 0.27 | 0.09 | 72 | 1009.7 |
| 20260903204547 | 63 | 0 | 2.0 | 7.0 | 0.00 | 0.28 | 0.09 | 69 | 1009.7 |
| 20260903203053 | 63 | 0 | 0.0 | 1.0 | 0.00 | 0.28 | 0.09 | 74 | 1009.6 |
| 20260903201546 | 62 | 247 | 0.0 | 4.0 | 0.00 | 0.28 | 0.09 | 74 | 1009.7 |
| 20260903200048 | 61 | 246 | 0.0 | 4.0 | 0.00 | 0.28 | 0.09 | 74 | 1009.6 |
| 20260903194547 | 61 | 249 | 0.0 | 3.0 | 0.00 | 0.28 | 0.09 | 75 | 1009.7 |
| 20260903193048 | 61 | 0 | 0.0 | 4.0 | 0.00 | 0.28 | 0.09 | 74 | 1009.7 |
| 20260903191543 | 62 | 227 | 0.0 | 2.0 | 0.00 | 0.28 | 0.09 | 74 | 1009.6 |
| 20260903190048 | 61 | 0 | 0.0 | 3.0 | 0.00 | 0.28 | 0.09 | 77 | 1009.8 |
| 20260903184546 | 60 | 0 | 0.0 | 4.0 | 0.00 | 0.28 | 0.09 | 78 | 1009.8 |
| 20260903183046 | 60 | 0 | 0.0 | 4.0 | 0.00 | 0.28 | 0.09 | 76 | 1009.7 |
| 20260903181542 | 60 | 0 | 0.0 | 4.0 | 0.00 | 0.28 | 0.09 | 79 | 1009.6 |
| 20260903180110 | 59 | 0 | 0.0 | 3.0 | 0.00 | 0.28 | 0.09 | 79 | 1009.6 |